Location: Gu�tanj
(46.5431°N, 14.9692°E)
Time: 14:46:51
(UTC+00:00)

Cosmos 1515 - Pass Details

Date: 03 March 2021
Orbit: 504 x 516 km, 82.5° (Epoch: 17 April)

Event Time Altitude Azimuth Distance (km) Brightness Sun altitude
Rises 17:54:19 0° 348° (NNW) 2,647 7.5 -12.0°
Reaches altitude 10° 17:56:28 10° 345° (NNW) 1,753 6.6 -12.4°
Maximum altitude 18:00:17 66° 264° (W) 568 4.1 -13.0°
Drops below altitude 10° 18:04:03 10° 182° (S) 1,732 6.3 -13.7°
Sets 18:06:10 0° 179° (S) 2,611 7.2 -14.0°
